Other Public Products
Issued by NWS Grand Forks, ND

Home | Current Version | Previous Version | Graphics & Text | Print | Product List | Glossary On
Versions: 1 2 3 4 5 6 7 8 9 10 11 12 13 14 15 16 17 18 19 20 21 22 23 24 25 26 27 28 29 30 31 32 33 34 35 36 37 38 39 40 41 42 43 44 45 46 47 48 49 50
000
FPUS83 KFGF 191110
OPUFGF
PRAIRIE TO PINES WEATHER ROUNDUP
NATIONAL WEATHER SERVICE EASTERN NORTH DAKOTA/GRAND FORKS ND
500 AM CST FRI JAN 19 2018

 **SATELLITE DATA USED TO AUGMENT SKY COVER AT AUTOMATED STATIONS**
 *****  WEATHER ACROSS EASTERN NORTH DAKOTA  *****

CITY           SKY/WX    TMP DP  RH WIND       PRES   REMARKS
GRAND FORKS    FAIR      28  25  88 SW6       29.47S WCI  22
GRND FORKS AFB FAIR      38  29  71 W8        29.46S
GRND FORKS NWS   N/A     28 N/A N/A S5          N/A  WCI  23
BUXTON         NOT AVBL
DEVILS LAKE    FAIR      30  26  85 W12       29.48F WCI  20
FARGO          FAIR      31  26  82 S10         N/A  WCI  22
WAHPETON ARPT  FAIR      28  23  80 SE9       29.54F WCI  20
$$

 *****  WEATHER ACROSS CENTRAL AND WESTERN NORTH DAKOTA  *****

CITY           SKY/WX    TMP DP  RH WIND       PRES   REMARKS
JAMESTOWN      FAIR      36  28  73 W8        29.50F
BISMARCK       FAIR      24  22  91 CALM      29.54F
MINOT          FAIR      41  31  67 SW18      29.49S
MINOT AFB      MOCLDY    39  31  74 W13       29.47S
GARRISON         N/A     34  26  72 W9        29.55R
WILLISTON      CLOUDY    41  30  65 W12       29.54F
DICKINSON      FAIR      32  25  75 W8        29.54S WCI  25
HETTINGER      FAIR      31  24  75 N5        29.56F
$$

 *****  OTHER OBSERVATIONS NORTHEAST NORTH DAKOTA  *****

CITY           SKY/WX    TMP DP  RH WIND       PRES   REMARKS
WALHALLA       FAIR      43  32  65 VRB6G18   29.41S
LANGDON        FAIR      36  34  93 W23       29.43R
CAVALIER         N/A     41  32  70 SW8G15    29.42S
GRAFTON        FAIR      32  28  86 SW12      29.46F WCI  23
CANDO          FAIR      34  30  86 W9        29.49S
FORT TOTTEN    NOT AVBL
ROLLA          FAIR      37  32  81 W20       29.42F
RUGBY          FAIR      36  30  80 W14       29.48S
 ***** THE ABOVE OBSERVATIONS ARE NON NWS ARE NOT QUALITY
        CONTROLLED AND MAY MIS-REPORT RAIN FOR SNOW...
$$

 *****  OTHER OBSERVATIONS SOUTHEAST NORTH DAKOTA *****

CITY           SKY/WX    TMP DP  RH WIND       PRES   REMARKS
COOPERSTOWN    FAIR      27  25  93 W9        29.51S WCI  17
VALLEY CITY    FAIR      34  32  93 W14       29.52F WCI  24
OAKES            N/A     27  27 100 SW6       29.55F WCI  20
GWINNER          N/A     30  27  86 SW12      29.53F WCI  21
SHEYENNE NWR     N/A     32  29  87 SW7       29.95S
BUFFALO        NOT AVBL
WYNDMERE       NOT AVBL
 ***** THE ABOVE OBSERVATIONS ARE NON NWS ARE NOT QUALITY
       CONTROLLED AND MAY MIS-REPORT RAIN FOR SNOW...
$$

  *****  WEATHER ACROSS NORTHERN MINNESOTA  *****

CITY           SKY/WX    TMP DP  RH WIND       PRES   REMARKS
FLAG ISLAND    FAIR      28  25  86 S9        29.36F WCI  20
WARROAD        FAIR      34  28  80 SW14G20   29.40R WCI  24
ROSEAU         FAIR      34  28  80 SW13      29.41F WCI  25
HALLOCK        FAIR      28  27  93 S13       29.41F WCI  18
THF RVR FALLS  FAIR      31  26  82 SW12      29.47F WCI  22
HALSTAD        NOT AVBL
FOSSTON        FAIR      28  25  86 S12       29.50F WCI  18
BAUDETTE       FAIR      32  26  78 SW9       29.38F WCI  24
WASKISH        FAIR      34  27  75 SW8       29.46S
CROOKSTON      FAIR      28  27  93 S12       29.49F WCI  18
$$
  *****  WEATHER ACROSS CENTRAL AND WEST MINNESOTA  *****

CITY           SKY/WX    TMP DP  RH WIND       PRES   REMARKS
BEMIDJI        FAIR      28  23  82 NW3       29.49S
PARK RAPIDS    FAIR      32  25  75 SW8       29.50F WCI  25
WADENA         FAIR      28  23  80 CALM      29.53F
DETROIT LAKES  FAIR      32  27  80 S3        29.52F
MOORHEAD       FAIR      30  25  80 S9        29.53F WCI  22
FERGUS FALLS   FAIR      28  23  80 SE7       29.54F WCI  21
ELBOW LAKE     FAIR      28  25  87 SE9       29.56F WCI  20
MORRIS MN      FAIR      28  25  86 SE9       29.56F WCI  20
STAPLES        FAIR      28  23  80 CALM      29.54F
WHEATON        FAIR      28  25  86 SE9       29.56F WCI  20
$$
  *****  WEATHER ELSEWHERE ACROSS MINNESOTA  *****

CITY           SKY/WX    TMP DP  RH WIND       PRES   REMARKS
DULUTH         FAIR      29  24  82 SW10      29.52F WCI  20
INTRNTL FALLS  CLOUDY    29  22  75 SW6       29.42F WCI  23
ELY            FAIR      28  23  80 W3        29.49S
CLOQUET        FAIR      28  25  86 S10       29.54F WCI  19
BRAINERD       FAIR      32  24  72 S9        29.55F WCI  24
HIBBING        FAIR      24  21  88 CALM      29.51F
ALEXANDRIA     FAIR      33  26  75 SW13      29.57F WCI  24
SAINT CLOUD    FAIR      27  25  92 MISG      29.61F
MINNEAPOLIS    CLOUDY    31  27  85 S7        29.66F WCI  24
$$

  *****  WEATHER ACROSS SOUTH DAKOTA  *****

CITY           SKY/WX    TMP DP  RH WIND       PRES   REMARKS
SIOUX FALLS    CLOUDY    28  25  88 E5        29.64F WCI  23
BROOKINGS      FAIR      29  26  89 SE8       29.61F WCI  21
WATERTOWN      FAIR      27  25  92 S9        29.57F WCI  18
HURON          FAIR      29  27  92 SE8       29.57F WCI  21
SISSETON         N/A     38  26  62 SE9       29.51F
ABERDEEN       FAIR      27  25  92 S9        29.55F WCI  18
MITCHELL       FAIR      29  26  89 E7        29.61F WCI  22
PIERRE         FAIR      24  23  96 SW3       29.55F
MOBRIDGE       FAIR      30  24  78 SE3       29.52F
RAPID CITY     FAIR      37  27  67 CALM      29.56F
$$

  *****  SOME WEATHER IN NEARBY STATES *****

CITY           SKY/WX    TMP DP  RH WIND       PRES   REMARKS
GLASGOW MT     CLOUDY    38  32  79 W9        29.61R
GREAT FALLS MT CLOUDY    34  30  85 SW8       29.63F
CHEYENNE WY    FAIR      50  17  27 W13       29.83F
SCOTTSBLUFF NE FAIR      32  27  81 CALM      29.75F
OMAHA NE       MOCLDY    27  22  81 SE12      29.80F WCI  17
DES MOINES IA  MOCLDY    32  23  69 SW9       29.82S WCI  24
DAVENPORT IA   FAIR      31  20  63 S13       29.91F WCI  21
CHICAGO IL     FAIR      29  19  66 SW15      29.90F WCI  18
EAU CLAIRE WI  FAIR      22  20  92 S3        29.69F
LA CROSSE WI   FAIR      26  19  74 S9        29.77S WCI  17
$$

  *****  SOME NATIONAL WEATHER *****

CITY           SKY/WX    TMP DP  RH WIND       PRES   REMARKS
LA GUARDIA NY  MOCLDY    30  12  47 W13G21    30.06S WCI  20
RALEIGH NC     FAIR      22  19  89 CALM      30.20R
ATLANTA GA     FAIR      27  13  55 NW7       30.28F WCI  19
NEW ORLEANS LA FAIR      30  26  85 CALM      30.38R
OKLAHOMA CITY  FAIR      26  16  65 S13       30.07F WCI  15
ALBUQUERQUE NM MOCLDY    30  10  43 SE6       30.14F WCI  24
SALT LAKE CITY FAIR      56  28  34 S18G26    29.80F
LOS ANGELES CA FOG       55  55 100 E3        30.02F VSB 1/4
BOISE ID       CLOUDY    39  37  92 NE5       29.82F
SEATTLE WA     FAIR      38  34  85 SE7       29.82S
$$

*** WEATHER ACROSS MANITOBA...SASKATCHEWAN AND ONTARIO ***
                ***ONTARIO***

CITY           SKY/WX    TMP DP  RH WIND       PRES   REMARKS
GERALDTON      LGT SNOW  19  18  93 SE5       29.49F WCI  13
THUNDER BAY    PTCLDY    21  21 100 CALM      29.53F
SIOUX LOOKOUT  CLOUDY    25  23  93 S9        29.32F WCI  15
TORONTO        MOCLDY    25  16  68 SW13G18   29.90S WCI  13
BIG TROUT LK   LGT SNOW   7   3  85 E8        29.38F VSB 1   WCI  -6
PICKLE LAKE    FLURRIES  18  16  93 S10       29.32  WCI   6
DRYDEN         CLOUDY    25  23  93 SW10      29.33F WCI  15
KENORA         NOT AVBL
$$
                *** MANITOBA***

CITY           SKY/WX    TMP DP  RH WIND       PRES   REMARKS
BRANDON        MOCLDY    37  30  75 W15       29.34F
DAUPHIN        CLOUDY    37  32  81 W16G22    29.26F
ISLAND LAKE    FLURRIES  16  12  86 E5        29.28S WCI   9
PILOT MOUND      N/A     34  30  86 SW17        N/A  WCI  23
THE PAS        FLURRIES  12   9  85 N6        29.32R WCI   3
THOMPSON       LGT SNOW   3   0  85 NE10      29.40R DRFTSNOWWCI -12
WINNIPEG       CLOUDY    39  30  70 SW14      29.33S
LYNN LAKE      LGT SNOW   5   1  85 E10       29.40R WCI -10
CHURCHILL      FLURRIES   0  -4  85 E5        29.68F WCI -10
GILLAM         LGT SNOW   0  -4  85 NE10      29.48S WCI -17
$$
                ***SASKATCHEWAN***

CITY           SKY/WX    TMP DP  RH WIND       PRES   REMARKS
ESTEVAN        PTCLDY    37  30  75 W13       29.45F
KINDERSLEY     PTCLDY    25  19  80 W7        29.45S WCI  17
LLOYDMINSTER   CLOUDY    32  27  80 W15       29.37S WCI  22
PRINCE ALBERT  CLOUDY    28  25  86 W5        29.34R WCI  23
REGINA         MOCLDY    30  27  86 W13       29.42R WCI  20
YORKTON        MOCLDY    34  30  86 W12       29.30S



USA.gov is the U.S. government's official web portal to all federal, state and local government web resources and services.